Simultaneous Nadir Overpasses (SNOs) Predictions

Prediction of SNOs between FY3D and AQUA Satellite Orbit:

Table of predicted SNOs for the next 14.0 days since TLE Epoch: 11/26/2022
Index Date (FY3D) Time (FY3D) Lat,Lon (FY3D) SZA (FY3D ) Date (AQUA) Time (AQUA) Lat,Lon (AQUA) SZA (AQUA ) Distance(km) Time Diff (sec)
1 11/26/2022 15:55:01 77.60, -74.40 98.82 11/26/2022 15:55:43 77.60, -74.42 98.81 0.56 42
2 11/26/2022 16:45:28 -76.84, 96.24 82.05 11/26/2022 16:44:52 -76.86, 96.14 82.03 2.71 36
3 11/29/2022 06:31:36 77.64, 66.28 99.34 11/29/2022 06:32:22 77.64, 66.25 99.34 0.83 46
4 11/29/2022 07:22:03 -76.89,-123.05 81.53 11/29/2022 07:21:31 -76.90,-123.15 81.52 2.74 32
5 12/01/2022 21:08:14 77.81,-153.67 99.97 12/01/2022 21:09:03 77.80,-153.56 99.95 2.77 49
6 12/01/2022 21:58:42 -77.10, 16.92 80.86 12/01/2022 21:58:13 -77.10, 16.96 80.86 0.96 29
7 12/04/2022 11:44:43 77.65, -12.01 100.17 12/04/2022 11:45:36 77.66, -12.10 100.17 2.21 53
8 12/04/2022 12:35:18 -77.24, 157.23 80.33 12/04/2022 12:34:52 -77.23, 157.31 80.33 2.26 26
9 12/07/2022 02:21:23 77.91, 127.59 100.81 12/07/2022 02:22:18 77.90, 127.70 100.79 2.90 55
10 12/07/2022 03:11:51 -77.21, -61.74 80.03 12/07/2022 03:11:28 -77.20, -61.70 80.04 1.19 23
11 12/09/2022 16:57:54 77.80, -90.99 100.97 12/09/2022 16:58:52 77.81, -91.01 100.96 0.61 58



Historial Predications of SNOs between FY3D and AQUA
